Time,TemperatureF,DewpointF,PressureIn,WindDirection,WindDirectionDegrees,WindSpeedMPH,WindSpeedGustMPH,Humidity,HourlyPrecipIn,Conditions,Clouds,dailyrainin,SolarRadiationWatts/m^2,SoftwareType,DateUTC
2013-06-11 00:01:00,66.9,66.6,29.77,North,349,0.0,0.0,99,0.10,,,1.34,0,LWC V2.00 B2112,2013-06-11 04:01:00,
2013-06-11 00:02:00,66.9,66.6,29.77,North,349,0.0,0.0,99,0.08,,,1.34,0,LWC V2.00 B2112,2013-06-11 04:02:00,
2013-06-11 00:06:00,67.0,66.7,29.77,North,349,0.0,0.0,99,0.05,,,0.00,0,LWC V2.00 B2112,2013-06-11 04:06:00,
2013-06-11 00:11:00,67.1,66.8,29.77,North,349,0.0,0.0,99,0.04,,,0.00,0,LWC V2.00 B2112,2013-06-11 04:11:00,
2013-06-11 00:16:00,67.2,66.9,29.76,North,349,0.0,0.0,99,0.00,,,0.00,0,LWC V2.00 B2112,2013-06-11 04:16:00,
2013-06-11 00:21:00,67.2,66.9,29.76,North,349,0.0,0.0,99,0.00,,,0.00,0,LWC V2.00 B2112,2013-06-11 04:21:00,
2013-06-11 00:26:00,67.3,67.0,29.76,North,349,0.0,0.0,99,0.00,,,0.00,0,LWC V2.00 B2112,2013-06-11 04:26:00,
2013-06-11 00:31:00,67.3,67.0,29.75,North,349,0.0,0.0,99,0.00,,,0.00,0,LWC V2.00 B2112,2013-06-11 04:31:00,
2013-06-11 00:34:00,67.3,67.0,29.75,North,349,0.0,0.0,99,0.00,,,0.00,0,LWC V2.00 B2112,2013-06-11 04:34:00,
2013-06-11 00:39:00,67.4,67.1,29.75,North,349,0.0,0.0,99,0.00,,,0.00,0,LWC V2.00 B2112,2013-06-11 04:39:00,
2013-06-11 00:44:00,67.3,67.0,29.75,North,349,0.0,0.0,99,0.00,,,0.00,0,LWC V2.00 B2112,2013-06-11 04:44:00,
2013-06-11 00:49:00,67.4,67.1,29.75,North,349,0.0,0.0,99,0.00,,,0.00,0,LWC V2.00 B2112,2013-06-11 04:49:00,
2013-06-11 00:54:00,67.4,67.1,29.75,North,349,0.0,0.0,99,0.00,,,0.01,0,LWC V2.00 B2112,2013-06-11 04:54:00,
2013-06-11 00:59:00,67.5,67.2,29.75,North,349,0.0,0.0,99,0.00,,,0.01,0,LWC V2.00 B2112,2013-06-11 04:59:00,
2013-06-11 01:04:00,67.6,67.3,29.75,North,349,0.0,0.0,99,0.00,,,0.01,0,LWC V2.00 B2112,2013-06-11 05:04:00,
2013-06-11 01:09:00,67.6,67.3,29.75,North,349,0.0,0.0,99,0.00,,,0.01,0,LWC V2.00 B2112,2013-06-11 05:09:00,
2013-06-11 01:15:00,67.6,67.3,29.74,North,349,0.0,0.0,99,0.00,,,0.01,0,LWC V2.00 B2112,2013-06-11 05:15:00,
2013-06-11 01:20:00,67.7,67.4,29.75,North,349,0.0,0.0,99,0.00,,,0.01,0,LWC V2.00 B2112,2013-06-11 05:20:00,
2013-06-11 01:25:00,67.8,67.5,29.74,North,349,0.0,0.0,99,0.00,,,0.01,0,LWC V2.00 B2112,2013-06-11 05:25:00,
2013-06-11 01:29:00,67.8,67.5,29.73,North,349,0.0,0.0,99,0.00,,,0.02,0,LWC V2.00 B2112,2013-06-11 05:29:00,
2013-06-11 01:34:00,67.9,67.6,29.73,North,349,0.0,0.0,99,0.00,,,0.02,0,LWC V2.00 B2112,2013-06-11 05:34:00,
2013-06-11 01:39:00,68.0,67.7,29.73,North,349,0.0,0.0,99,0.00,,,0.02,0,LWC V2.00 B2112,2013-06-11 05:39:00,
2013-06-11 01:44:00,68.0,67.7,29.72,North,349,0.0,0.0,99,0.00,,,0.02,0,LWC V2.00 B2112,2013-06-11 05:44:00,
2013-06-11 01:49:00,68.0,67.7,29.72,North,349,0.0,0.0,99,0.00,,,0.02,0,LWC V2.00 B2112,2013-06-11 05:49:00,
2013-06-11 01:54:00,68.0,67.7,29.72,North,349,0.0,0.0,99,0.00,,,0.02,0,LWC V2.00 B2112,2013-06-11 05:54:00,
2013-06-11 01:59:00,68.0,67.7,29.72,North,349,0.0,0.0,99,0.00,,,0.02,0,LWC V2.00 B2112,2013-06-11 05:59:00,
2013-06-11 02:04:00,68.1,67.8,29.71,North,349,0.0,0.0,99,0.00,,,0.02,0,LWC V2.00 B2112,2013-06-11 06:04:00,
2013-06-11 02:09:00,68.2,67.9,29.71,North,349,0.0,0.0,99,0.00,,,0.03,0,LWC V2.00 B2112,2013-06-11 06:09:00,
2013-06-11 02:14:00,68.2,67.9,29.71,North,349,0.0,0.0,99,0.00,,,0.03,0,LWC V2.00 B2112,2013-06-11 06:14:00,
2013-06-11 02:19:00,68.3,68.0,29.71,North,349,0.0,0.0,99,0.00,,,0.03,0,LWC V2.00 B2112,2013-06-11 06:19:00,
2013-06-11 02:24:00,68.4,68.1,29.71,North,349,0.0,0.0,99,0.04,,,0.04,0,LWC V2.00 B2112,2013-06-11 06:24:00,
2013-06-11 02:29:00,68.5,68.2,29.71,North,349,0.0,0.0,99,0.04,,,0.04,0,LWC V2.00 B2112,2013-06-11 06:29:00,
2013-06-11 02:34:00,68.5,68.2,29.71,North,349,0.0,0.0,99,0.04,,,0.04,0,LWC V2.00 B2112,2013-06-11 06:34:00,
2013-06-11 02:39:00,68.5,68.2,29.71,North,349,0.0,0.0,99,0.04,,,0.04,0,LWC V2.00 B2112,2013-06-11 06:39:00,
2013-06-11 02:44:00,68.5,68.2,29.71,North,349,0.0,0.0,99,0.00,,,0.04,0,LWC V2.00 B2112,2013-06-11 06:44:00,
2013-06-11 02:49:00,68.6,68.3,29.71,North,349,0.0,0.0,99,0.00,,,0.04,0,LWC V2.00 B2112,2013-06-11 06:49:00,
2013-06-11 02:54:00,68.7,68.4,29.71,North,349,0.0,0.0,99,0.00,,,0.04,0,LWC V2.00 B2112,2013-06-11 06:54:00,
2013-06-11 02:59:00,68.6,68.3,29.71,North,349,0.0,0.0,99,0.00,,,0.04,0,LWC V2.00 B2112,2013-06-11 06:59:00,
2013-06-11 03:04:00,68.7,68.4,29.71,North,349,0.0,0.0,99,0.00,,,0.04,0,LWC V2.00 B2112,2013-06-11 07:04:00,
2013-06-11 03:09:00,68.8,68.5,29.71,North,349,0.0,0.0,99,0.00,,,0.04,0,LWC V2.00 B2112,2013-06-11 07:09:00,
2013-06-11 03:14:00,68.9,68.6,29.71,North,349,0.0,0.0,99,0.00,,,0.04,0,LWC V2.00 B2112,2013-06-11 07:14:00,
2013-06-11 03:19:00,69.1,68.8,29.71,North,349,0.0,0.0,99,0.00,,,0.04,0,LWC V2.00 B2112,2013-06-11 07:19:00,
2013-06-11 03:24:00,69.2,68.9,29.71,North,349,0.0,0.0,99,0.00,,,0.04,0,LWC V2.00 B2112,2013-06-11 07:24:00,
2013-06-11 03:29:00,69.2,68.9,29.71,North,349,0.0,0.0,99,0.00,,,0.04,0,LWC V2.00 B2112,2013-06-11 07:29:00,
2013-06-11 03:34:00,69.3,69.0,29.71,North,349,0.0,0.0,99,0.00,,,0.04,0,LWC V2.00 B2112,2013-06-11 07:34:00,
2013-06-11 03:39:00,69.3,69.0,29.71,North,349,0.0,0.0,99,0.00,,,0.04,0,LWC V2.00 B2112,2013-06-11 07:39:00,
2013-06-11 03:44:00,69.3,69.0,29.70,North,349,0.0,0.0,99,0.00,,,0.04,0,LWC V2.00 B2112,2013-06-11 07:44:00,
2013-06-11 03:49:00,69.2,68.9,29.71,North,349,0.0,0.0,99,0.00,,,0.04,0,LWC V2.00 B2112,2013-06-11 07:49:00,
2013-06-11 03:54:00,69.2,68.9,29.71,North,349,0.0,0.0,99,0.00,,,0.04,0,LWC V2.00 B2112,2013-06-11 07:54:00,
2013-06-11 03:59:00,69.1,68.8,29.71,North,349,0.0,0.0,99,0.00,,,0.04,0,LWC V2.00 B2112,2013-06-11 07:59:00,
2013-06-11 04:04:00,69.0,68.7,29.71,North,349,0.0,0.0,99,0.00,,,0.04,0,LWC V2.00 B2112,2013-06-11 08:04:00,
2013-06-11 04:09:00,68.9,68.6,29.71,North,349,0.0,0.0,99,0.00,,,0.04,0,LWC V2.00 B2112,2013-06-11 08:09:00,
2013-06-11 04:14:00,68.8,68.5,29.71,North,349,0.0,0.0,99,0.00,,,0.04,0,LWC V2.00 B2112,2013-06-11 08:14:00,
2013-06-11 04:19:00,68.7,68.4,29.71,North,349,0.0,0.0,99,0.00,,,0.04,0,LWC V2.00 B2112,2013-06-11 08:19:00,
2013-06-11 04:24:00,68.6,68.3,29.70,North,349,0.0,0.0,99,0.00,,,0.04,0,LWC V2.00 B2112,2013-06-11 08:24:00,
2013-06-11 04:29:00,68.6,68.3,29.71,North,349,0.0,1.0,99,0.00,,,0.04,0,LWC V2.00 B2112,2013-06-11 08:29:00,
2013-06-11 04:34:00,68.5,68.2,29.71,North,349,0.0,0.0,99,0.00,,,0.04,0,LWC V2.00 B2112,2013-06-11 08:34:00,
2013-06-11 04:39:00,68.4,68.1,29.71,North,349,0.0,0.0,99,0.00,,,0.04,0,LWC V2.00 B2112,2013-06-11 08:39:00,
2013-06-11 04:44:00,68.4,68.1,29.71,North,349,0.0,0.0,99,0.00,,,0.04,0,LWC V2.00 B2112,2013-06-11 08:44:00,
2013-06-11 04:49:00,68.3,68.0,29.71,North,349,1.0,1.0,99,0.00,,,0.04,0,LWC V2.00 B2112,2013-06-11 08:49:00,
2013-06-11 04:54:00,68.2,67.9,29.71,North,349,0.0,0.0,99,0.00,,,0.04,0,LWC V2.00 B2112,2013-06-11 08:54:00,
2013-06-11 04:59:00,68.2,67.9,29.71,North,349,0.0,0.0,99,0.00,,,0.04,0,LWC V2.00 B2112,2013-06-11 08:59:00,
2013-06-11 05:04:00,68.2,67.9,29.71,North,349,0.0,1.0,99,0.00,,,0.04,0,LWC V2.00 B2112,2013-06-11 09:04:00,
2013-06-11 05:09:00,68.2,67.9,29.71,North,349,0.0,2.0,99,0.00,,,0.04,0,LWC V2.00 B2112,2013-06-11 09:09:00,
2013-06-11 05:14:00,68.2,67.9,29.71,North,349,0.0,0.0,99,0.00,,,0.04,0,LWC V2.00 B2112,2013-06-11 09:14:00,
2013-06-11 05:19:00,68.2,67.9,29.71,North,349,0.0,0.0,99,0.00,,,0.04,0,LWC V2.00 B2112,2013-06-11 09:19:00,
2013-06-11 05:24:00,68.2,67.9,29.71,North,349,0.0,0.0,99,0.00,,,0.04,0,LWC V2.00 B2112,2013-06-11 09:24:00,
2013-06-11 05:29:00,68.1,67.8,29.71,North,349,0.0,0.0,99,0.00,,,0.04,0,LWC V2.00 B2112,2013-06-11 09:29:00,
2013-06-11 05:34:00,68.1,67.8,29.71,North,349,0.0,0.0,99,0.00,,,0.04,0,LWC V2.00 B2112,2013-06-11 09:34:00,
2013-06-11 05:39:00,68.0,67.7,29.71,North,349,0.0,0.0,99,0.00,,,0.04,0,LWC V2.00 B2112,2013-06-11 09:39:00,
2013-06-11 05:44:00,68.0,67.7,29.72,North,349,0.0,0.0,99,0.00,,,0.04,0,LWC V2.00 B2112,2013-06-11 09:44:00,
2013-06-11 05:49:00,68.0,67.7,29.72,North,349,0.0,0.0,99,0.00,,,0.04,0,LWC V2.00 B2112,2013-06-11 09:49:00,
2013-06-11 05:54:00,67.9,67.6,29.72,North,349,0.0,0.0,99,0.00,,,0.04,0,LWC V2.00 B2112,2013-06-11 09:54:00,
2013-06-11 05:59:00,67.9,67.6,29.72,North,349,0.0,0.0,99,0.00,,,0.04,0,LWC V2.00 B2112,2013-06-11 09:59:00,
2013-06-11 06:04:00,67.9,67.6,29.72,North,349,0.0,0.0,99,0.00,,,0.04,0,LWC V2.00 B2112,2013-06-11 10:04:00,
2013-06-11 06:09:00,67.9,67.3,29.71,North,349,0.0,0.0,98,0.00,,,0.04,0,LWC V2.00 B2112,2013-06-11 10:09:00,
2013-06-11 06:14:00,67.8,67.5,29.72,North,349,0.0,0.0,99,0.00,,,0.04,0,LWC V2.00 B2112,2013-06-11 10:14:00,
2013-06-11 06:19:00,67.8,67.5,29.72,North,349,0.0,0.0,99,0.00,,,0.04,0,LWC V2.00 B2112,2013-06-11 10:19:00,
2013-06-11 06:24:00,67.8,67.5,29.72,North,349,0.0,0.0,99,0.00,,,0.04,0,LWC V2.00 B2112,2013-06-11 10:24:00,
2013-06-11 06:29:00,67.8,67.5,29.72,North,349,0.0,0.0,99,0.00,,,0.04,5,LWC V2.00 B2112,2013-06-11 10:29:00,
2013-06-11 06:34:00,67.8,67.5,29.72,North,349,0.0,0.0,99,0.00,,,0.04,5,LWC V2.00 B2112,2013-06-11 10:34:00,
2013-06-11 06:39:00,67.7,67.4,29.72,North,349,0.0,0.0,99,0.00,,,0.04,7,LWC V2.00 B2112,2013-06-11 10:39:00,
2013-06-11 06:44:00,67.7,67.4,29.72,North,349,0.0,0.0,99,0.00,,,0.04,14,LWC V2.00 B2112,2013-06-11 10:44:00,
2013-06-11 06:49:00,67.7,67.4,29.72,North,349,0.0,0.0,99,0.00,,,0.04,9,LWC V2.00 B2112,2013-06-11 10:49:00,
2013-06-11 06:54:00,67.7,67.4,29.72,North,349,0.0,0.0,99,0.00,,,0.04,11,LWC V2.00 B2112,2013-06-11 10:54:00,
2013-06-11 06:59:00,67.8,67.5,29.72,North,349,0.0,0.0,99,0.00,,,0.04,12,LWC V2.00 B2112,2013-06-11 10:59:00,
2013-06-11 07:04:00,67.8,67.5,29.72,North,349,0.0,0.0,99,0.00,,,0.04,14,LWC V2.00 B2112,2013-06-11 11:04:00,
2013-06-11 07:09:00,67.8,67.5,29.72,North,349,0.0,0.0,99,0.00,,,0.04,11,LWC V2.00 B2112,2013-06-11 11:09:00,
2013-06-11 07:14:00,67.8,67.5,29.72,North,349,0.0,1.0,99,0.00,,,0.04,25,LWC V2.00 B2112,2013-06-11 11:14:00,
2013-06-11 07:19:00,67.9,67.6,29.72,North,349,0.0,1.0,99,0.00,,,0.04,14,LWC V2.00 B2112,2013-06-11 11:19:00,
2013-06-11 07:24:00,67.9,67.6,29.72,North,349,0.0,2.0,99,0.00,,,0.04,12,LWC V2.00 B2112,2013-06-11 11:24:00,
2013-06-11 07:29:00,67.9,67.6,29.72,North,349,0.0,0.0,99,0.00,,,0.04,14,LWC V2.00 B2112,2013-06-11 11:29:00,
2013-06-11 07:34:00,67.9,67.6,29.72,North,349,0.0,0.0,99,0.00,,,0.04,12,LWC V2.00 B2112,2013-06-11 11:34:00,
2013-06-11 07:39:00,68.0,67.7,29.72,North,349,0.0,0.0,99,0.00,,,0.04,19,LWC V2.00 B2112,2013-06-11 11:39:00,
2013-06-11 07:44:00,68.1,67.8,29.72,North,349,0.0,0.0,99,0.00,,,0.04,25,LWC V2.00 B2112,2013-06-11 11:44:00,
2013-06-11 07:49:00,68.2,67.9,29.72,North,349,0.0,0.0,99,0.00,,,0.04,14,LWC V2.00 B2112,2013-06-11 11:49:00,
2013-06-11 07:54:00,68.2,67.9,29.73,NNW,335,0.0,0.0,99,0.00,,,0.04,32,LWC V2.00 B2112,2013-06-11 11:54:00,
2013-06-11 07:59:00,68.3,68.0,29.73,NNW,334,0.0,0.0,99,0.00,,,0.04,26,LWC V2.00 B2112,2013-06-11 11:59:00,
2013-06-11 08:04:00,68.4,68.1,29.73,NNW,334,0.0,1.0,99,0.00,,,0.04,28,LWC V2.00 B2112,2013-06-11 12:04:00,
2013-06-11 08:09:00,68.5,68.2,29.72,NNW,329,0.0,0.0,99,0.00,,,0.04,32,LWC V2.00 B2112,2013-06-11 12:09:00,
2013-06-11 08:14:00,68.4,68.1,29.72,NNW,329,0.0,1.0,99,0.00,,,0.04,26,LWC V2.00 B2112,2013-06-11 12:14:00,
2013-06-11 08:19:00,68.4,68.1,29.72,NW,323,1.0,3.0,99,0.00,,,0.04,25,LWC V2.00 B2112,2013-06-11 12:19:00,
2013-06-11 08:24:00,68.4,68.1,29.72,NW,323,0.0,1.0,99,0.00,,,0.04,28,LWC V2.00 B2112,2013-06-11 12:24:00,
2013-06-11 08:29:00,68.4,68.1,29.72,NW,323,0.0,0.0,99,0.00,,,0.04,26,LWC V2.00 B2112,2013-06-11 12:29:00,
2013-06-11 08:34:00,68.4,68.1,29.72,NW,323,0.0,0.0,99,0.00,,,0.04,18,LWC V2.00 B2112,2013-06-11 12:34:00,
2013-06-11 08:39:00,68.4,68.1,29.73,NW,312,0.0,1.0,99,0.00,,,0.04,40,LWC V2.00 B2112,2013-06-11 12:39:00,
2013-06-11 08:44:00,68.5,68.2,29.73,NW,307,0.0,3.0,99,0.00,,,0.04,35,LWC V2.00 B2112,2013-06-11 12:44:00,
2013-06-11 08:49:00,68.6,68.3,29.73,NW,307,0.0,0.0,99,0.00,,,0.04,46,LWC V2.00 B2112,2013-06-11 12:49:00,
2013-06-11 08:54:00,68.7,68.4,29.73,NW,305,1.0,2.0,99,0.00,,,0.04,46,LWC V2.00 B2112,2013-06-11 12:54:00,
2013-06-11 08:59:00,68.7,68.4,29.72,NW,305,0.0,1.0,99,0.00,,,0.04,37,LWC V2.00 B2112,2013-06-11 12:59:00,
2013-06-11 09:04:00,68.9,68.3,29.72,NW,305,0.0,1.0,98,0.00,,,0.04,26,LWC V2.00 B2112,2013-06-11 13:04:00,
2013-06-11 09:09:00,69.1,68.5,29.72,NW,306,0.0,1.0,98,0.00,,,0.04,39,LWC V2.00 B2112,2013-06-11 13:09:00,
2013-06-11 09:14:00,69.4,68.8,29.72,West,271,0.0,3.0,98,0.00,,,0.04,53,LWC V2.00 B2112,2013-06-11 13:14:00,
2013-06-11 09:19:00,69.5,68.6,29.72,West,265,0.0,2.0,97,0.00,,,0.04,42,LWC V2.00 B2112,2013-06-11 13:19:00,
2013-06-11 09:24:00,69.8,68.9,29.71,WSW,246,0.0,1.0,97,0.00,,,0.04,39,LWC V2.00 B2112,2013-06-11 13:24:00,
2013-06-11 09:29:00,70.0,69.1,29.72,SSW,212,1.0,1.0,97,0.00,,,0.04,35,LWC V2.00 B2112,2013-06-11 13:29:00,
2013-06-11 09:34:00,70.2,69.0,29.71,East,84,0.0,0.0,96,0.00,,,0.04,32,LWC V2.00 B2112,2013-06-11 13:34:00,
2013-06-11 09:39:00,70.3,68.8,29.72,NNE,24,0.0,1.0,95,0.00,,,0.04,49,LWC V2.00 B2112,2013-06-11 13:39:00,
2013-06-11 09:44:00,70.3,68.2,29.71,ENE,74,0.0,4.0,93,0.00,,,0.04,60,LWC V2.00 B2112,2013-06-11 13:44:00,
2013-06-11 09:49:00,70.4,68.3,29.71,SW,222,1.0,2.0,93,0.00,,,0.04,58,LWC V2.00 B2112,2013-06-11 13:49:00,
2013-06-11 09:54:00,70.7,68.6,29.71,WSW,257,0.0,2.0,93,0.00,,,0.04,72,LWC V2.00 B2112,2013-06-11 13:54:00,
2013-06-11 09:59:00,71.0,68.6,29.71,WSW,247,0.0,1.0,92,0.00,,,0.04,56,LWC V2.00 B2112,2013-06-11 13:59:00,
2013-06-11 10:04:00,71.3,68.5,29.71,West,277,3.0,3.0,91,0.00,,,0.04,53,LWC V2.00 B2112,2013-06-11 14:04:00,
2013-06-11 10:09:00,71.7,68.6,29.71,West,281,0.0,2.0,90,0.00,,,0.04,54,LWC V2.00 B2112,2013-06-11 14:09:00,
2013-06-11 10:14:00,71.9,68.1,29.70,NW,309,0.0,2.0,88,0.00,,,0.04,67,LWC V2.00 B2112,2013-06-11 14:14:00,
2013-06-11 10:19:00,72.2,68.4,29.70,WSW,245,0.0,0.0,88,0.00,,,0.04,42,LWC V2.00 B2112,2013-06-11 14:19:00,
2013-06-11 10:24:00,72.6,68.5,29.70,SW,236,0.0,2.0,87,0.00,,,0.04,32,LWC V2.00 B2112,2013-06-11 14:24:00,
2013-06-11 10:29:00,72.9,68.5,29.70,West,272,1.0,1.0,86,0.00,,,0.04,37,LWC V2.00 B2112,2013-06-11 14:29:00,
2013-06-11 10:34:00,73.2,68.4,29.70,West,275,0.0,1.0,85,0.00,,,0.04,88,LWC V2.00 B2112,2013-06-11 14:34:00,
2013-06-11 10:39:00,73.4,67.9,29.70,West,281,1.0,2.0,83,0.00,,,0.04,28,LWC V2.00 B2112,2013-06-11 14:39:00,
2013-06-11 10:44:00,73.5,69.0,29.70,West,273,0.0,0.0,86,0.00,,,0.04,53,LWC V2.00 B2112,2013-06-11 14:44:00,
2013-06-11 10:49:00,73.6,68.8,29.70,WSW,240,0.0,1.0,85,0.00,,,0.04,37,LWC V2.00 B2112,2013-06-11 14:49:00,
2013-06-11 10:54:00,73.8,68.3,29.70,WNW,300,0.0,1.0,83,0.00,,,0.04,62,LWC V2.00 B2112,2013-06-11 14:54:00,
2013-06-11 10:59:00,74.0,68.1,29.70,WNW,300,0.0,2.0,82,0.00,,,0.04,47,LWC V2.00 B2112,2013-06-11 14:59:00,
2013-06-11 11:04:00,74.4,67.8,29.70,WNW,288,0.0,1.0,80,0.00,,,0.04,62,LWC V2.00 B2112,2013-06-11 15:04:00,
2013-06-11 11:09:00,74.6,68.7,29.70,WNW,288,0.0,0.0,82,0.00,,,0.04,84,LWC V2.00 B2112,2013-06-11 15:09:00,
2013-06-11 11:14:00,74.9,69.0,29.70,East,98,0.0,2.0,82,0.00,,,0.04,62,LWC V2.00 B2112,2013-06-11 15:14:00,
2013-06-11 11:19:00,75.2,68.6,29.69,East,98,1.0,2.0,80,0.00,,,0.04,53,LWC V2.00 B2112,2013-06-11 15:19:00,
2013-06-11 11:24:00,75.4,69.1,29.70,SW,232,1.0,2.0,81,0.00,,,0.04,63,LWC V2.00 B2112,2013-06-11 15:24:00,
2013-06-11 11:29:00,75.6,68.2,29.69,WNW,294,0.0,1.0,78,0.00,,,0.04,56,LWC V2.00 B2112,2013-06-11 15:29:00,
2013-06-11 11:34:00,75.9,68.9,29.69,West,259,0.0,1.0,79,0.00,,,0.04,62,LWC V2.00 B2112,2013-06-11 15:34:00,
2013-06-11 11:39:00,76.1,68.7,29.69,WNW,295,1.0,2.0,78,0.00,,,0.04,60,LWC V2.00 B2112,2013-06-11 15:39:00,
2013-06-11 11:44:00,76.4,69.4,29.69,WNW,302,0.0,1.0,79,0.00,,,0.04,56,LWC V2.00 B2112,2013-06-11 15:44:00,
2013-06-11 11:49:00,76.7,68.5,29.69,WNW,302,0.0,1.0,76,0.00,,,0.04,69,LWC V2.00 B2112,2013-06-11 15:49:00,
2013-06-11 11:54:00,76.9,69.1,29.68,WNW,302,0.0,1.0,77,0.00,,,0.04,86,LWC V2.00 B2112,2013-06-11 15:54:00,
2013-06-11 11:59:00,77.1,68.9,29.68,NW,311,2.0,3.0,76,0.00,,,0.04,67,LWC V2.00 B2112,2013-06-11 15:59:00,
2013-06-11 12:04:00,77.4,68.4,29.68,WSW,252,2.0,3.0,74,0.00,,,0.04,81,LWC V2.00 B2112,2013-06-11 16:04:00,
2013-06-11 12:09:00,77.6,67.8,29.68,NW,306,0.0,2.0,72,0.00,,,0.04,56,LWC V2.00 B2112,2013-06-11 16:09:00,
2013-06-11 12:14:00,77.6,67.4,29.68,NW,305,0.0,2.0,71,0.00,,,0.04,62,LWC V2.00 B2112,2013-06-11 16:14:00,
2013-06-11 12:19:00,77.6,67.4,29.68,North,0,0.0,2.0,71,0.00,,,0.04,83,LWC V2.00 B2112,2013-06-11 16:19:00,
2013-06-11 12:24:00,77.8,68.4,29.68,West,277,0.0,3.0,73,0.00,,,0.04,81,LWC V2.00 B2112,2013-06-11 16:24:00,
2013-06-11 12:29:00,77.9,67.3,29.67,NW,311,1.0,2.0,70,0.00,,,0.04,111,LWC V2.00 B2112,2013-06-11 16:29:00,
2013-06-11 12:34:00,77.7,67.5,29.68,West,267,0.0,1.0,71,0.00,,,0.04,49,LWC V2.00 B2112,2013-06-11 16:34:00,
2013-06-11 12:39:00,77.5,67.7,29.67,West,268,0.0,2.0,72,0.00,,,0.04,97,LWC V2.00 B2112,2013-06-11 16:39:00,
2013-06-11 12:44:00,77.4,68.0,29.67,SW,215,2.0,3.0,73,0.00,,,0.05,63,LWC V2.00 B2112,2013-06-11 16:44:00,
2013-06-11 12:49:00,77.1,67.0,29.67,West,259,0.0,2.0,71,0.00,,,0.05,47,LWC V2.00 B2112,2013-06-11 16:49:00,
2013-06-11 12:54:00,76.9,68.4,29.67,West,263,0.0,2.0,75,0.00,,,0.05,23,LWC V2.00 B2112,2013-06-11 16:54:00,
2013-06-11 12:59:00,76.5,68.4,29.66,West,263,0.0,1.0,76,0.00,,,0.05,550,LWC V2.00 B2112,2013-06-11 16:59:00,
2013-06-11 13:04:00,76.4,67.9,29.66,West,276,0.0,2.0,75,0.00,,,0.05,526,LWC V2.00 B2112,2013-06-11 17:04:00,
2013-06-11 13:09:00,76.7,69.3,29.66,West,276,1.0,2.0,78,0.00,,,0.05,529,LWC V2.00 B2112,2013-06-11 17:09:00,
2013-06-11 13:14:00,77.3,69.5,29.66,West,278,0.0,2.0,77,0.00,,,0.05,555,LWC V2.00 B2112,2013-06-11 17:14:00,
2013-06-11 13:19:00,77.9,69.7,29.66,WNW,296,0.0,1.0,76,0.00,,,0.05,555,LWC V2.00 B2112,2013-06-11 17:19:00,
2013-06-11 13:24:00,78.5,69.9,29.65,West,280,1.0,2.0,75,0.00,,,0.05,555,LWC V2.00 B2112,2013-06-11 17:24:00,
2013-06-11 13:29:00,79.0,69.6,29.65,WNW,298,0.0,1.0,73,0.00,,,0.05,536,LWC V2.00 B2112,2013-06-11 17:29:00,
2013-06-11 13:34:00,79.3,68.6,29.65,NW,313,1.0,2.0,70,0.00,,,0.05,158,LWC V2.00 B2112,2013-06-11 17:34:00,
2013-06-11 13:39:00,79.5,68.8,29.65,NW,313,1.0,2.0,70,0.00,,,0.05,33,LWC V2.00 B2112,2013-06-11 17:39:00,
2013-06-11 13:44:00,79.4,70.0,29.65,NW,313,0.0,2.0,73,0.00,,,0.05,557,LWC V2.00 B2112,2013-06-11 17:44:00,
2013-06-11 13:49:00,79.3,68.6,29.65,West,263,0.0,3.0,70,0.00,,,0.05,28,LWC V2.00 B2112,2013-06-11 17:49:00,
2013-06-11 13:54:00,79.1,68.5,29.64,NNW,348,0.0,3.0,70,0.00,,,0.05,54,LWC V2.00 B2112,2013-06-11 17:54:00,
2013-06-11 13:59:00,78.9,68.3,29.64,NW,322,0.0,2.0,70,0.00,,,0.05,54,LWC V2.00 B2112,2013-06-11 17:59:00,
2013-06-11 14:04:00,78.5,68.3,29.64,NW,322,0.0,1.0,71,0.00,,,0.05,40,LWC V2.00 B2112,2013-06-11 18:04:00,
2013-06-11 14:09:00,78.2,68.0,29.65,NW,322,0.0,1.0,71,0.00,,,0.05,83,LWC V2.00 B2112,2013-06-11 18:09:00,
2013-06-11 14:14:00,77.9,68.1,29.65,WNW,286,0.0,3.0,72,0.00,,,0.05,118,LWC V2.00 B2112,2013-06-11 18:14:00,
2013-06-11 14:19:00,77.8,68.8,29.64,WNW,286,0.0,2.0,74,0.00,,,0.05,70,LWC V2.00 B2112,2013-06-11 18:19:00,
2013-06-11 14:24:00,77.8,68.4,29.64,WNW,295,0.0,0.0,73,0.00,,,0.05,111,LWC V2.00 B2112,2013-06-11 18:24:00,
2013-06-11 14:29:00,77.8,68.4,29.64,WNW,295,0.0,1.0,73,0.00,,,0.05,155,LWC V2.00 B2112,2013-06-11 18:29:00,
2013-06-11 14:34:00,78.1,69.5,29.64,WNW,295,1.0,2.0,75,0.00,,,0.05,134,LWC V2.00 B2112,2013-06-11 18:34:00,
2013-06-11 14:39:00,78.3,67.7,29.64,WSW,254,0.0,2.0,70,0.00,,,0.05,69,LWC V2.00 B2112,2013-06-11 18:39:00,
2013-06-11 14:44:00,78.4,68.2,29.64,West,268,0.0,1.0,71,0.00,,,0.05,49,LWC V2.00 B2112,2013-06-11 18:44:00,
2013-06-11 14:49:00,78.3,67.7,29.64,NW,326,1.0,2.0,70,0.00,,,0.05,35,LWC V2.00 B2112,2013-06-11 18:49:00,
2013-06-11 14:54:00,78.1,67.9,29.64,NW,326,0.0,1.0,71,0.00,,,0.05,26,LWC V2.00 B2112,2013-06-11 18:54:00,
2013-06-11 14:59:00,77.8,68.0,29.64,NW,308,1.0,2.0,72,0.00,,,0.05,93,LWC V2.00 B2112,2013-06-11 18:59:00,
2013-06-11 15:04:00,77.5,66.9,29.64,NW,307,0.0,2.0,70,0.00,,,0.05,54,LWC V2.00 B2112,2013-06-11 19:04:00,
2013-06-11 15:09:00,77.3,66.7,29.64,WNW,283,1.0,2.0,70,0.00,,,0.06,77,LWC V2.00 B2112,2013-06-11 19:09:00,
2013-06-11 15:14:00,77.3,66.3,29.64,WNW,300,0.0,1.0,69,0.00,,,0.06,81,LWC V2.00 B2112,2013-06-11 19:14:00,
2013-06-11 15:19:00,77.2,67.0,29.64,SSW,211,0.0,0.0,71,0.00,,,0.06,70,LWC V2.00 B2112,2013-06-11 19:19:00,
2013-06-11 15:24:00,77.3,67.1,29.63,WSW,257,0.0,1.0,71,0.00,,,0.06,74,LWC V2.00 B2112,2013-06-11 19:24:00,
2013-06-11 15:29:00,77.4,66.4,29.63,WNW,286,3.0,4.0,69,0.00,,,0.06,63,LWC V2.00 B2112,2013-06-11 19:29:00,
2013-06-11 15:34:00,77.4,67.2,29.63,NW,315,0.0,2.0,71,0.00,,,0.06,51,LWC V2.00 B2112,2013-06-11 19:34:00,
2013-06-11 15:39:00,77.5,67.7,29.63,West,267,0.0,3.0,72,0.00,,,0.06,76,LWC V2.00 B2112,2013-06-11 19:39:00,
2013-06-11 15:44:00,77.8,68.4,29.63,West,267,0.0,0.0,73,0.00,,,0.06,63,LWC V2.00 B2112,2013-06-11 19:44:00,
2013-06-11 15:49:00,77.8,68.0,29.63,NW,313,0.0,1.0,72,0.00,,,0.06,79,LWC V2.00 B2112,2013-06-11 19:49:00,
2013-06-11 15:54:00,77.9,68.1,29.63,NW,312,0.0,1.0,72,0.00,,,0.06,69,LWC V2.00 B2112,2013-06-11 19:54:00,
2013-06-11 15:59:00,78.0,67.4,29.62,WSW,242,1.0,3.0,70,0.00,,,0.06,42,LWC V2.00 B2112,2013-06-11 19:59:00,
2013-06-11 16:04:00,77.9,66.9,29.62,West,278,0.0,2.0,69,0.00,,,0.06,40,LWC V2.00 B2112,2013-06-11 20:04:00,
2013-06-11 16:09:00,77.8,67.2,29.62,West,271,0.0,1.0,70,0.00,,,0.06,51,LWC V2.00 B2112,2013-06-11 20:09:00,
2013-06-11 16:14:00,77.8,67.2,29.62,NNW,342,1.0,2.0,70,0.00,,,0.06,98,LWC V2.00 B2112,2013-06-11 20:14:00,
2013-06-11 16:19:00,78.1,68.7,29.62,NNW,343,2.0,2.0,73,0.00,,,0.06,32,LWC V2.00 B2112,2013-06-11 20:19:00,
2013-06-11 16:24:00,78.2,67.6,29.62,NW,311,1.0,2.0,70,0.00,,,0.06,56,LWC V2.00 B2112,2013-06-11 20:24:00,
2013-06-11 16:29:00,78.3,67.7,29.61,West,276,0.0,3.0,70,0.00,,,0.06,84,LWC V2.00 B2112,2013-06-11 20:29:00,
2013-06-11 16:34:00,78.5,68.7,29.62,NW,311,1.0,1.0,72,0.00,,,0.06,44,LWC V2.00 B2112,2013-06-11 20:34:00,
2013-06-11 16:39:00,78.6,68.0,29.62,NW,311,0.0,2.0,70,0.00,,,0.06,56,LWC V2.00 B2112,2013-06-11 20:39:00,
2013-06-11 16:44:00,78.6,67.6,29.62,WNW,300,1.0,2.0,69,0.00,,,0.06,83,LWC V2.00 B2112,2013-06-11 20:44:00,
2013-06-11 16:49:00,78.7,67.2,29.61,West,269,1.0,3.0,68,0.00,,,0.06,49,LWC V2.00 B2112,2013-06-11 20:49:00,
2013-06-11 16:54:00,78.9,67.4,29.61,ESE,123,0.0,2.0,68,0.00,,,0.06,12,LWC V2.00 B2112,2013-06-11 20:54:00,
2013-06-11 16:59:00,78.9,67.4,29.61,NNE,24,1.0,3.0,68,0.00,,,0.06,16,LWC V2.00 B2112,2013-06-11 20:59:00,
2013-06-11 17:04:00,78.7,67.2,29.61,East,84,0.0,1.0,68,0.00,,,0.06,47,LWC V2.00 B2112,2013-06-11 21:04:00,
2013-06-11 17:09:00,78.7,67.7,29.61,NNE,24,0.0,3.0,69,0.00,,,0.06,53,LWC V2.00 B2112,2013-06-11 21:09:00,
2013-06-11 17:14:00,78.8,68.2,29.61,NE,44,0.0,3.0,70,0.00,,,0.06,47,LWC V2.00 B2112,2013-06-11 21:14:00,
2013-06-11 17:19:00,79.0,67.9,29.61,West,265,1.0,3.0,69,0.00,,,0.06,49,LWC V2.00 B2112,2013-06-11 21:19:00,
2013-06-11 17:24:00,79.3,66.9,29.61,SSW,207,1.0,2.0,66,0.00,,,0.06,26,LWC V2.00 B2112,2013-06-11 21:24:00,
2013-06-11 17:29:00,79.3,66.9,29.61,West,272,1.0,5.0,66,0.00,,,0.06,30,LWC V2.00 B2112,2013-06-11 21:29:00,
2013-06-11 17:34:00,79.2,67.3,29.60,NNW,329,0.0,1.0,67,0.00,,,0.06,35,LWC V2.00 B2112,2013-06-11 21:34:00,
2013-06-11 17:39:00,79.1,67.6,29.60,NW,321,2.0,3.0,68,0.00,,,0.06,26,LWC V2.00 B2112,2013-06-11 21:39:00,
2013-06-11 17:44:00,78.8,66.9,29.61,NNW,329,1.0,4.0,67,0.00,,,0.06,60,LWC V2.00 B2112,2013-06-11 21:44:00,
2013-06-11 17:49:00,78.9,67.4,29.60,West,273,1.0,4.0,68,0.00,,,0.06,21,LWC V2.00 B2112,2013-06-11 21:49:00,
2013-06-11 17:54:00,78.9,67.0,29.60,NW,304,1.0,3.0,67,0.00,,,0.06,12,LWC V2.00 B2112,2013-06-11 21:54:00,
2013-06-11 17:59:00,78.9,66.1,29.61,WSW,252,0.0,2.0,65,0.00,,,0.06,19,LWC V2.00 B2112,2013-06-11 21:59:00,
2013-06-11 18:04:00,78.7,67.2,29.61,West,279,1.0,3.0,68,0.00,,,0.06,35,LWC V2.00 B2112,2013-06-11 22:04:00,
2013-06-11 18:09:00,78.7,66.8,29.61,West,259,0.0,3.0,67,0.00,,,0.06,33,LWC V2.00 B2112,2013-06-11 22:09:00,
2013-06-11 18:14:00,78.7,66.4,29.61,West,278,1.0,3.0,66,0.00,,,0.06,39,LWC V2.00 B2112,2013-06-11 22:14:00,
2013-06-11 18:19:00,78.8,66.9,29.61,WNW,284,0.0,2.0,67,0.00,,,0.06,35,LWC V2.00 B2112,2013-06-11 22:19:00,
2013-06-11 18:24:00,78.8,66.9,29.61,East,96,0.0,1.0,67,0.00,,,0.06,35,LWC V2.00 B2112,2013-06-11 22:24:00,
2013-06-11 18:29:00,78.8,66.9,29.61,East,81,0.0,1.0,67,0.00,,,0.06,14,LWC V2.00 B2112,2013-06-11 22:29:00,
2013-06-11 18:34:00,78.6,66.7,29.61,WNW,290,2.0,2.0,67,0.00,,,0.06,21,LWC V2.00 B2112,2013-06-11 22:34:00,
2013-06-11 18:39:00,78.6,66.7,29.61,WSW,248,0.0,1.0,67,0.00,,,0.06,49,LWC V2.00 B2112,2013-06-11 22:39:00,
2013-06-11 18:44:00,78.6,67.6,29.61,West,270,0.0,0.0,69,0.00,,,0.06,11,LWC V2.00 B2112,2013-06-11 22:44:00,
2013-06-11 18:49:00,78.5,66.6,29.61,North,0,1.0,3.0,67,0.00,,,0.06,25,LWC V2.00 B2112,2013-06-11 22:49:00,
2013-06-11 18:54:00,78.4,66.5,29.61,WNW,294,0.0,2.0,67,0.00,,,0.06,25,LWC V2.00 B2112,2013-06-11 22:54:00,
2013-06-11 18:59:00,78.4,66.1,29.62,West,275,0.0,2.0,66,0.00,,,0.06,21,LWC V2.00 B2112,2013-06-11 22:59:00,
2013-06-11 19:04:00,78.4,65.6,29.61,NNW,340,1.0,5.0,65,0.00,,,0.06,5,LWC V2.00 B2112,2013-06-11 23:04:00,
2013-06-11 19:09:00,78.3,66.4,29.62,West,263,0.0,1.0,67,0.00,,,0.06,12,LWC V2.00 B2112,2013-06-11 23:09:00,
2013-06-11 19:14:00,78.2,65.9,29.62,NE,52,0.0,2.0,66,0.00,,,0.06,12,LWC V2.00 B2112,2013-06-11 23:14:00,
2013-06-11 19:19:00,78.0,66.1,29.62,ESE,115,0.0,1.0,67,0.00,,,0.06,18,LWC V2.00 B2112,2013-06-11 23:19:00,
2013-06-11 19:24:00,77.8,65.9,29.62,West,276,0.0,2.0,67,0.00,,,0.06,11,LWC V2.00 B2112,2013-06-11 23:24:00,
2013-06-11 19:29:00,77.6,65.3,29.62,WNW,288,0.0,1.0,66,0.00,,,0.06,7,LWC V2.00 B2112,2013-06-11 23:29:00,
2013-06-11 19:34:00,77.5,65.2,29.63,West,275,1.0,3.0,66,0.00,,,0.06,16,LWC V2.00 B2112,2013-06-11 23:34:00,
2013-06-11 19:39:00,77.3,64.6,29.63,NW,306,0.0,3.0,65,0.00,,,0.06,11,LWC V2.00 B2112,2013-06-11 23:39:00,
2013-06-11 19:44:00,77.2,64.9,29.63,NW,316,0.0,1.0,66,0.00,,,0.06,9,LWC V2.00 B2112,2013-06-11 23:44:00,
2013-06-11 19:49:00,77.0,64.8,29.64,NW,320,1.0,2.0,66,0.00,,,0.06,5,LWC V2.00 B2112,2013-06-11 23:49:00,
2013-06-11 19:54:00,76.8,64.1,29.64,West,267,6.0,6.0,65,0.00,,,0.06,5,LWC V2.00 B2112,2013-06-11 23:54:00,
2013-06-11 19:59:00,76.7,64.0,29.64,SW,235,0.0,1.0,65,0.00,,,0.06,0,LWC V2.00 B2112,2013-06-11 23:59:00,
2013-06-11 20:04:00,76.6,63.9,29.64,WSW,240,0.0,2.0,65,0.00,,,0.06,0,LWC V2.00 B2112,2013-06-12 00:04:00,
2013-06-11 20:09:00,76.5,63.8,29.64,WSW,257,2.0,2.0,65,0.00,,,0.06,0,LWC V2.00 B2112,2013-06-12 00:09:00,
2013-06-11 20:14:00,76.4,63.3,29.64,West,279,0.0,5.0,64,0.00,,,0.06,0,LWC V2.00 B2112,2013-06-12 00:14:00,
2013-06-11 20:19:00,76.4,63.3,29.64,West,267,0.0,5.0,64,0.00,,,0.06,0,LWC V2.00 B2112,2013-06-12 00:19:00,
2013-06-11 20:24:00,76.4,63.7,29.65,West,270,1.0,1.0,65,0.00,,,0.06,0,LWC V2.00 B2112,2013-06-12 00:24:00,
2013-06-11 20:29:00,76.3,63.2,29.64,NE,38,0.0,2.0,64,0.00,,,0.06,0,LWC V2.00 B2112,2013-06-12 00:29:00,
2013-06-11 20:34:00,76.3,63.6,29.64,NNE,24,0.0,1.0,65,0.00,,,0.06,0,LWC V2.00 B2112,2013-06-12 00:34:00,
2013-06-11 20:39:00,76.2,64.0,29.65,NNE,30,0.0,0.0,66,0.00,,,0.06,0,LWC V2.00 B2112,2013-06-12 00:39:00,
2013-06-11 20:44:00,76.0,63.8,29.65,NNE,30,0.0,1.0,66,0.00,,,0.06,0,LWC V2.00 B2112,2013-06-12 00:44:00,
2013-06-11 20:49:00,75.7,63.9,29.65,NNE,28,2.0,2.0,67,0.00,,,0.06,0,LWC V2.00 B2112,2013-06-12 00:49:00,
2013-06-11 20:54:00,75.5,63.3,29.66,NNE,28,0.0,1.0,66,0.00,,,0.06,0,LWC V2.00 B2112,2013-06-12 00:54:00,
2013-06-11 20:59:00,75.4,63.7,29.66,NNE,28,1.0,1.0,67,0.00,,,0.06,0,LWC V2.00 B2112,2013-06-12 00:59:00,
2013-06-11 21:04:00,75.1,63.8,29.66,NNE,24,1.0,3.0,68,0.00,,,0.06,0,LWC V2.00 B2112,2013-06-12 01:04:00,
2013-06-11 21:09:00,74.9,64.0,29.66,NNE,24,0.0,2.0,69,0.00,,,0.06,0,LWC V2.00 B2112,2013-06-12 01:09:00,
2013-06-11 21:14:00,74.6,63.7,29.66,NNE,24,1.0,2.0,69,0.00,,,0.06,0,LWC V2.00 B2112,2013-06-12 01:14:00,
2013-06-11 21:19:00,74.4,64.4,29.67,NNE,25,0.0,2.0,71,0.00,,,0.06,0,LWC V2.00 B2112,2013-06-12 01:19:00,
2013-06-11 21:24:00,74.1,64.1,29.67,NNE,25,0.0,1.0,71,0.00,,,0.06,0,LWC V2.00 B2112,2013-06-12 01:24:00,
2013-06-11 21:29:00,73.9,63.9,29.67,NNE,24,0.0,3.0,71,0.00,,,0.06,0,LWC V2.00 B2112,2013-06-12 01:29:00,
2013-06-11 21:34:00,73.8,63.8,29.67,NNE,24,0.0,1.0,71,0.00,,,0.06,0,LWC V2.00 B2112,2013-06-12 01:34:00,
2013-06-11 21:39:00,73.6,63.6,29.68,NNE,24,0.0,1.0,71,0.00,,,0.06,0,LWC V2.00 B2112,2013-06-12 01:39:00,
2013-06-11 21:44:00,73.5,63.5,29.68,NNE,24,0.0,2.0,71,0.00,,,0.06,0,LWC V2.00 B2112,2013-06-12 01:44:00,
2013-06-11 21:49:00,73.4,63.8,29.68,NNE,24,0.0,0.0,72,0.00,,,0.06,0,LWC V2.00 B2112,2013-06-12 01:49:00,
2013-06-11 21:54:00,73.3,63.3,29.69,East,84,1.0,2.0,71,0.00,,,0.06,0,LWC V2.00 B2112,2013-06-12 01:54:00,
2013-06-11 21:59:00,73.1,62.7,29.69,NNE,24,1.0,4.0,70,0.00,,,0.06,0,LWC V2.00 B2112,2013-06-12 01:59:00,
2013-06-11 22:04:00,73.1,62.7,29.69,West,275,0.0,2.0,70,0.00,,,0.06,0,LWC V2.00 B2112,2013-06-12 02:04:00,
2013-06-11 22:09:00,73.2,62.8,29.69,WNW,299,0.0,2.0,70,0.00,,,0.06,0,LWC V2.00 B2112,2013-06-12 02:09:00,
2013-06-11 22:14:00,73.1,62.7,29.69,WNW,302,2.0,2.0,70,0.00,,,0.06,0,LWC V2.00 B2112,2013-06-12 02:14:00,
2013-06-11 22:19:00,73.1,62.3,29.69,WNW,300,0.0,3.0,69,0.00,,,0.06,0,LWC V2.00 B2112,2013-06-12 02:19:00,
2013-06-11 22:24:00,73.0,62.2,29.70,West,281,0.0,2.0,69,0.00,,,0.06,0,LWC V2.00 B2112,2013-06-12 02:24:00,
2013-06-11 22:29:00,72.9,62.1,29.70,West,276,0.0,1.0,69,0.00,,,0.06,0,LWC V2.00 B2112,2013-06-12 02:29:00,
2013-06-11 22:34:00,72.8,62.0,29.70,West,276,0.0,2.0,69,0.00,,,0.06,0,LWC V2.00 B2112,2013-06-12 02:34:00,
2013-06-11 22:39:00,72.7,61.5,29.70,NW,311,0.0,1.0,68,0.00,,,0.06,0,LWC V2.00 B2112,2013-06-12 02:39:00,
2013-06-11 22:44:00,72.6,61.4,29.70,WNW,292,0.0,1.0,68,0.00,,,0.06,0,LWC V2.00 B2112,2013-06-12 02:44:00,
2013-06-11 22:49:00,72.6,61.8,29.70,SSW,211,0.0,0.0,69,0.00,,,0.06,0,LWC V2.00 B2112,2013-06-12 02:49:00,
2013-06-11 22:54:00,72.5,62.1,29.70,SSW,211,0.0,0.0,70,0.00,,,0.06,0,LWC V2.00 B2112,2013-06-12 02:54:00,
2013-06-11 22:59:00,72.4,62.0,29.70,SSW,211,0.0,0.0,70,0.00,,,0.06,0,LWC V2.00 B2112,2013-06-12 02:59:00,
2013-06-11 23:04:00,72.3,62.4,29.70,SSW,211,0.0,1.0,71,0.00,,,0.06,0,LWC V2.00 B2112,2013-06-12 03:04:00,
2013-06-11 23:09:00,72.1,62.6,29.70,SSW,211,0.0,0.0,72,0.00,,,0.06,0,LWC V2.00 B2112,2013-06-12 03:09:00,
2013-06-11 23:14:00,71.9,62.4,29.70,SSW,211,0.0,0.0,72,0.00,,,0.06,0,LWC V2.00 B2112,2013-06-12 03:14:00,
2013-06-11 23:19:00,71.7,62.2,29.70,SSW,211,0.0,0.0,72,0.00,,,0.06,0,LWC V2.00 B2112,2013-06-12 03:19:00,
2013-06-11 23:24:00,71.5,62.4,29.70,SSW,211,0.0,0.0,73,0.00,,,0.06,0,LWC V2.00 B2112,2013-06-12 03:24:00,
2013-06-11 23:29:00,71.3,63.0,29.71,SSW,211,0.0,0.0,75,0.00,,,0.06,0,LWC V2.00 B2112,2013-06-12 03:29:00,
2013-06-11 23:34:00,71.1,62.8,29.70,SSW,211,0.0,0.0,75,0.00,,,0.06,0,LWC V2.00 B2112,2013-06-12 03:34:00,
2013-06-11 23:39:00,71.0,63.4,29.70,SSW,211,0.0,0.0,77,0.00,,,0.06,0,LWC V2.00 B2112,2013-06-12 03:39:00,
2013-06-11 23:44:00,70.8,63.2,29.70,SSW,211,0.0,0.0,77,0.00,,,0.06,0,LWC V2.00 B2112,2013-06-12 03:44:00,
2013-06-11 23:49:00,70.5,62.9,29.71,SSW,211,0.0,0.0,77,0.00,,,0.06,0,LWC V2.00 B2112,2013-06-12 03:49:00,
2013-06-11 23:54:00,70.2,63.0,29.71,SSW,211,0.0,0.0,78,0.00,,,0.06,0,LWC V2.00 B2112,2013-06-12 03:54:00,
2013-06-11 23:59:00,69.9,63.1,29.71,SSW,211,0.0,0.0,79,0.00,,,0.06,0,LWC V2.00 B2112,2013-06-12 03:59:00,